STARLINK-4536, 53783

Orbit data source: Space-Track

STARLINK-4536, 53783 is a payload satellite owned by SpaceX/Seattle (US) in LEO that was launched on Sun, 11 Sep 2022 UTC via an FALCON 9 launch vehicle from the Air Force Eastern Test Range (AFETR). Payload-class satellites include a variety of spacecraft equipped with specific instruments for various scientific and technological missions. These include communications satellites like Starlink; space stations such as the ISS; scientific satellites like the Hubble; Earth observation satellites from companies like Planet Labs, Umbra, and HawkEye 360; GPS; miniature CubeSats for education and research; and military/defense satellites.

Loading next visibility...
Identifier
53783, 2022-111L
Orbit
LEO
Country
Flag of USUS
Related business
Manufacturer
SpaceX/Seattle
Mission
Operational Commercial Communications
Bus & Motor
STARLINK, Unknown motor
Mass
305 kg wet, ~290 kg dry
Launch date (UTC)
2022-09-11 (3 years ago)
Launch vehicle
FALCON 9
Launch site
Air Force Eastern Test Range (AFETR)
Object type
Payload
Rocket body
Debris
Shape & HBR
Box + 1 Pan, 10.1 m
Radar Cross Section
13.562 m², Large (>1 m²)

Expand to show TLE details & history
Last TLE update: 7 hours ago

TLE from 7 hours ago
0 STARLINK-4536
1 53783U 22111L   26035.47918272 -.00000367  00000-0 -49696-5 0  9996
2 53783  53.2174  63.1281 0001469  91.0748 269.0412 15.08839306188688
Epoch: 2026-02-04T11:30Z
TLE epoch observation values (Epoch: 2026-02-04T11:30:01.387Z)
Latitude
-0.00004°
Longitude
115.97712°
Altitude
540.66 km
Speed
7.593 km/s
True Right ascension
04h 12m 30s
True Declination
0° 00' 00"
Sunlit
Object was in daylight at epoch
Visualization orbit readout
Latitude
Unknown
Longitude
Unknown
Altitude
Unknown
Speed
Unknown
Apparent Right ascension
Unknown
Apparent Declination
Unknown
Sunlit
N/A
Visualization observer readout
Local Sidereal Time
20:16:13
Azimuth
Unknown
Elevation
Unknown
Doppler factor
Unknown
Orbital elements
Apogee altitude
541.007 km
Perigee altitude
538.974 km
Semi-major axis
6,918.127 km
Eccentricity
0.00015
Inclination
53.2174°
RAAN
63.1281°
Arg. of periapsis
91.0748°
True anomaly
269.02437°
Mean anomaly
269.0412°
Eccentric anomaly
269.03278°
Mean motion
3.7719 °/min
Orbital period
95.44 mins
BSTAR
-0.0000049696
Loading maneuver chart data...
Computing Atmospheric mass density...
Loading historical data...
Loading historical data...
Loading historical data...
Loading historical data...
Loading historical data...
Loading historical data...
Loading historical data...

Documentation

Showing up to 5 results
|